sat.trackr.live / text

‹ back to catalog

ONEWEB-0373

NORAD 49299 · 2021-090W

PAYLOAD ACTIVE UNKNOWN

§ Identity

Operator
Country
UK
Launch date
2021-10-14
Launch site
VOSTO
Launch vehicle
Mass (kg)
RCS (m²)

Purposes: comms

External: N2YO · Heavens-Above · Gunter

§ Orbital elements

Epoch: 2026-09-19T23:01:23.591712Z

Period
109.03 min
Inclination
87.9142°
Eccentricity
0.0001991
Mean motion
13.20773340 rev/d
Perigee alt
1,180.3 km
Apogee alt
1,183.3 km
Semi-major
7,559.9 km
B*
-4.1901e-5
RAAN
255.5346°
Arg perigee
91.4476°
Mean anomaly
268.6885°
Rev number
24,353

§ Raw data

ONEWEB-03731 49299U 21090W   26262.95930083 -.00000004  00000+0 -41901-4 0  99942 49299  87.9142 255.5346 0001991  91.4476 268.6885 13.20773340243537

JSON: /api/v1/satellites/49299 · /tle

For live sub-satellite position, see the globe view (requires WebGL).

§ Visibility from observer

Set your observer location to see the next 7 days of passes ≥ 10°. The values pass through the URL so the page stays shareable.

No JS? Fill the form by hand. The geolocation button needs JavaScript.